TimeEDT,TemperatureF,Dew PointF,Humidity,Sea Level PressureIn,VisibilityMPH,Wind Direction,Wind SpeedMPH,Gust SpeedMPH,PrecipitationIn,Events,Conditions,WindDirDegrees,DateUTC
12:55 AM,72.9,69.8,90,30.05,10.0,NNE,4.6,-,N/A,,Clear,20,2012-10-10 04:55:00
1:55 AM,73.2,70.3,91,30.05,10.0,NNE,8.1,-,N/A,,Partly Cloudy,20,2012-10-10 05:55:00
2:15 AM,73.4,69.8,88,30.05,10.0,North,6.9,-,N/A,,Mostly Cloudy,10,2012-10-10 06:15:00
2:41 AM,73.4,71.6,94,30.04,10.0,NNE,5.8,-,N/A,,Scattered Clouds,20,2012-10-10 06:41:00
2:55 AM,73.6,70.2,89,30.04,10.0,NNE,5.8,-,N/A,,Partly Cloudy,20,2012-10-10 06:55:00
3:54 AM,73.4,69.8,88,30.04,10.0,North,6.9,-,N/A,,Mostly Cloudy,10,2012-10-10 07:54:00
3:55 AM,73.4,70.2,90,30.04,10.0,North,6.9,-,N/A,,Mostly Cloudy,10,2012-10-10 07:55:00
4:17 AM,73.4,69.8,88,30.04,10.0,North,6.9,-,N/A,,Scattered Clouds,10,2012-10-10 08:17:00
4:55 AM,73.2,70.2,90,30.04,10.0,North,5.8,-,N/A,,Clear,360,2012-10-10 08:55:00
5:55 AM,72.3,69.8,92,30.05,10.0,North,4.6,-,N/A,,Clear,350,2012-10-10 09:55:00
6:55 AM,70.9,69.8,96,30.07,10.0,NNW,5.8,-,N/A,,Clear,330,2012-10-10 10:55:00
7:55 AM,71.1,70.3,98,30.09,10.0,NNW,5.8,-,N/A,,Mostly Cloudy,340,2012-10-10 11:55:00
8:55 AM,73.2,72.0,96,30.10,10.0,North,6.9,-,N/A,,Clear,350,2012-10-10 12:55:00
9:55 AM,78.3,73.2,84,30.11,10.0,North,9.2,-,N/A,,Mostly Cloudy,360,2012-10-10 13:55:00
10:55 AM,80.1,70.9,73,30.12,10.0,North,8.1,-,N/A,,Partly Cloudy,10,2012-10-10 14:55:00
12:55 PM,80.6,68.5,67,30.11,10.0,NNE,11.5,-,N/A,,Partly Cloudy,20,2012-10-10 16:55:00
1:55 PM,81.3,68.5,65,30.09,10.0,NNE,9.2,16.1,N/A,,Clear,20,2012-10-10 17:55:00
2:55 PM,79.9,66.9,64,30.08,10.0,North,11.5,-,N/A,,Partly Cloudy,10,2012-10-10 18:55:00
3:55 PM,80.2,66.2,62,30.07,10.0,NE,13.8,-,N/A,,Clear,40,2012-10-10 19:55:00
4:55 PM,79.2,65.8,64,30.06,10.0,NE,13.8,18.4,N/A,,Clear,50,2012-10-10 20:55:00
5:55 PM,77.4,64.6,65,30.06,10.0,NE,8.1,-,N/A,,Clear,50,2012-10-10 21:55:00
6:55 PM,73.2,63.7,72,30.06,10.0,NNE,4.6,-,N/A,,Clear,30,2012-10-10 22:55:00
7:55 PM,70.0,63.7,80,30.07,9.0,NE,4.6,-,N/A,,Clear,40,2012-10-10 23:55:00
8:55 PM,68.0,64.0,87,30.09,10.0,ENE,3.5,-,N/A,,Clear,60,2012-10-11 00:55:00
9:55 PM,67.5,64.8,91,30.11,10.0,NNE,5.8,-,N/A,,Clear,30,2012-10-11 01:55:00
10:55 PM,68.5,64.8,88,30.12,9.0,NNE,3.5,-,N/A,,Clear,30,2012-10-11 02:55:00
11:55 PM,68.7,64.9,88,30.13,5.0,NNE,4.6,-,N/A,,Clear,30,2012-10-11 03:55:00